www.pogodaiklimat.ru

Погода и климат >> Архив погоды >> Перу >> Trujillo


ПОГОДА в Trujillo

  • Прогноз погоды в Trujillo
  • Монитор погоды в Trujillo
  • Климат города

АРХИВ ПОГОДЫ в Trujillo

Время (UTC), дата Ветер
(напр.,м/с)
 
Видим.   Явления Облачность Т
(С)
Тd
(С)
f
(%)
Тe
(С)
Тes
(С)
Комфортность P
(гПа)
Po
(гПа)
Тmin
(С)
Tmax
(С)
R
(мм)
R24
(мм)
S
(см)
15 16.10 Ю 4 10 км 10/10 660 м
[St]
+19.9 +16.3 80 +23 +23 комфорт 1015.2 1012.3
18 16.10 Ю 6 10 км 3/3 750 м
[Sc]
+19.7 +16.2 80 +22 +28 комфорт 1014.2 1011.5
21 16.10 Ю 5 10 км 3/3 600 м
[Sc]
+20.1 +16.6 80 +23 +25 комфорт 1012.7 1009.9
00 17.10 ЮВ 4 8000 м дымка 10/4 600 м
[St]
+18.5 +16.5 88 +19 +19 1013.6 1010.8 +21.1
03 17.10 ЮВ 4 7000 м дымка 10/10 700 м
[St]
+18.0 +16.2 89 +18 +18 1015.1 1012.3
06 17.10 ЮВ 4 6000 м дымка 10/10 630 м
[St]
+17.6 +16.0 90 +17 +17 1014.0 1011.2
09 17.10 ЮВ 4 5000 м дымка 10/10 630 м
[St]
+17.3 +15.7 90 +17 +17 1013.3 1010.5
12 17.10 ЮВ 5 6000 м дымка 10/10 500 м
[St]
+17.1 +15.3 89 +16 +16 1014.4 1011.6 +17.1
15 17.10 Ю 5 10 км 6/6 600 м
[Sc]
+18.8 +15.1 79 +19 +23 1015.5 1012.7
18 17.10 Ю 5 10 км 3/3 900 м
[Sc]
+20.6 +16.1 75 +24 +31 комфорт 1013.8 1011.0
21 17.10 Ю 5 10 км 3/3 750 м
[Sc]
+19.8 +16.3 80 +22 +25 комфорт 1012.7 1009.9
00 18.10 ЮВ 4 8000 м дымка 10/10 600 м
[St]
+18.5 +16.1 86 +19 +19 1013.8 1011.0 +21.0
03 18.10 ЮВ 4 7000 м дымка 10/10 750 м
[St]
+17.7 +15.7 88 +17 +17 1015.1 1012.3
06 18.10 ЮВ 3 6000 м дымка 8/0
[Ac trans]
+16.9 +15.3 90 +17 +17 1014.0 1011.2
09 18.10 В 2 8000 м дымка 10/10 720 м
[St]
+16.7 +15.2 91 +17 +17 1014.4 1011.4
12 18.10 ЮВ 4 6000 м дымка 10/10 600 м
[St]
+16.8 +15.0 89 +16 +16 1015.3 1012.5 +16.5
15 18.10 ЮВ 5 10 км 3/3 900 м
[Sc]
+19.3 +15.8 80 +21 +27 комфорт 1016.6 1013.8
18 18.10 Ю 5 10 км 3/3 900 м
[Sc]
+20.7 +14.9 69 +24 +31 комфорт 1014.2 1011.4
21 18.10 Ю 5 10 км ясно +19.3 +15.8 80 +21 +24 комфорт 1012.0 1009.2
00 19.10 ЮВ 4 7000 м мгла 3/0
[Ac trans]
+18.1 +15.9 87 +18 +18 1013.5 1010.7 +21.3
03 19.10 ЮВ 3 8000 м 3/0
[Ac trans]
+17.6 +15.4 87 +18 +18 1015.5 1012.7
06 19.10 ЮВ 3 6000 м 10/4 600 м
[St Ac trans]
+17.2 +15.0 87 +17 +17 1014.7 1011.9
09 19.10 ЮВ 2 6000 м 10/10 600 м
[St]
+16.7 +15.1 90 +17 +17 1013.6 1010.8
12 19.10 В 3 8000 м дымка 10/10 600 м
[St]
+17.0 +14.8 87 +17 +17 1015.4 1012.6 +16.3
15 19.10 ЮВ 5 10 км 4/4 800 м
[Sc]
+20.4 +14.4 68 +23 +28 комфорт 1016.6 1013.8
21 19.10 ЮВ 5 8000 м 10/0
[As op]
+19.0 +15.5 80 +20 +21 1012.8 1010.0
00 20.10 ЮВ 4 7000 м дымка 10/0
[As op]
+17.8 +15.5 86 +18 +18 1014.4 1011.6 +21.2
03 20.10 ЮВ 4 6000 м дымка ясно +17.5 +14.8 84 +17 +17 1016.3 1013.5
06 20.10 ЮВ 3 6000 м дымка 10/10 750 м
[St]
+17.1 +14.9 87 +17 +17 1015.0 1012.2
09 20.10 ЮВ 3 6000 м дымка ясно +16.5 +14.7 89 +16 +16 1013.5 1010.7
12 20.10 ЮВ 3 6000 м дымка ясно +16.5 +14.9 90 +16 +17 1015.0 1012.2 +16.3
15 20.10 Ю 5 10 км ясно +19.1 +15.2 78 +20 +29 1015.6 1012.8
18 20.10 Ю 5 10 км ясно +20.5 +15.3 72 +23 +34 комфорт 1014.2 1011.4
00 21.10 ЮВ 5 8000 м мгла ясно +17.8 +14.9 83 +17 +17 1013.7 1010.9 +21.0
03 21.10 ЮВ 5 5000 м дымка ясно +17.5 +15.2 86 +17 +17 1015.2 1012.4
06 21.10 ЮВ 3 5000 м дымка 5/0
[Ac trans]
+16.6 +15.1 91 +16 +16 1013.9 1011.1
09 21.10 ЮВ 3 4000 м дымка ясно +16.5 +14.9 90 +16 +16 1013.0 1010.2
12 21.10 ЮВ 4 5000 м дымка 10/0
[As op]
+16.4 +15.1 92 +16 +16 1014.4 1011.6 +16.3
15 21.10 ЮВ 4 5000 м дымка 10/0
[As op]
+16.4 +15.1 92 +16 +18 1014.4 1011.6 +16.3
21 21.10 Ю 5 10 км 3/3 900 м
[Sc]
+18.9 +15.6 81 +20 +22 1012.0 1009.2
00 22.10 ЮВ 4 8000 м дымка 4/4 900 м
[Sc]
+17.6 +15.6 88 +17 +17 1012.8 1010.0 +20.7
03 22.10 ЮВ 3 5000 м дымка ясно +17.3 +15.5 89 +17 +17 1013.9 1011.1
06 22.10 ЮВ 5 5000 м дымка 10/10 500 м
[St]
+17.0 +15.5 91 +16 +16 1013.0 1010.2
09 22.10 ЮВ 3 6000 м дымка 10/10 500 м
[St]
+16.6 +15.0 90 +16 +16 1012.3 1009.5
12 22.10 ЮВ 3 6000 м дымка 10/10 570 м
[St]
+17.0 +14.8 87 +17 +17 1014.8 1012.0 +16.4
15 22.10 ЮВ 4 8000 м дымка 10/10 750 м
[St]
+18.8 +15.1 79 +20 +20 1016.8 1013.3
18 22.10 Ю 7 10 км 4/4 900 м
[Sc]
+19.4 +15.0 76 +21 +25 комфорт 1014.3 1011.5
21 22.10 ЮВ 5 10 км 3/3 900 м
[Sc]
+19.3 +15.2 77 +21 +23 комфорт 1011.8 1009.0
00 23.10 ЮВ 4 10 км 3/3 900 м
[Sc]
+17.4 +15.2 87 +17 +17 1013.7 1010.9 +20.7
03 23.10 ЮВ 4 6000 м в посл. час морось ясно +17.1 +14.9 87 +17 +17 1014.8 1012.0
06 23.10 ЮВ 2 7000 м ясно +16.1 +14.8 92 +16 +16 1014.0 1011.2
09 23.10 ЮВ 2 7000 м дымка 3/3 750 м
[Sc]
+15.8 +14.4 91 +16 +16 1013.4 1010.6
12 23.10 ЮВ 2 9000 м мгла 8/8 800 м
[Sc]
+16.4 +14.8 90 +17 +17 1015.2 1012.4 +15.8

 

Местоположение метеостанции Trujillo (Перу): широта -8.08 долгота -79.10 высота над уровнем моря 30 м.

В архиве по умолчанию представлена погода в Trujillo за последнюю неделю. Архивные данные за месяц целиком и за предыдущие месяцы, начиная с января 2011 года, Вы можете получить, выбрав интересующий диапазон дат из раскрывающегося списка и нажав кнопку "Ввод!".


*Определитесь, кто Вы:
робот инопланетянин человек

Внимание! Время в таблицах - всемирное. Для получения местного времени необходимо прибавить поправку, которая в Trujillo равна -5 ч.

Смотрите также архив погоды в соседних городах и на ближайших метеорологических станциях:

Погода в Cajamarca (Перу) (127 км)
Погода в Chimbote (Перу) (134 км)
Погода в Chiclayo (Перу) (164 км)
Погода в Anta (Перу) (217 км)
Погода в Chachapoyas (Перу) (251 км)
Погода в Juanjui (Перу) (282 км)
Погода в Tarapoto (Перу) (350 км)
Погода в Piura (Перу) (361 км)
Погода в Tingo Maria (Перу) (366 км)
Погода в Huanuco (Перу) (376 км)

Пояснения к столбцам:

Ветер - указаны скорость ветра в м/с - средняя за 10 мин, порывы в срок и между сроками (в фигурных скобках) и направление, откуда дует ветер: С - северный, СВ - северо-восточный, В - восточный, ЮВ - юго-восточный, Ю - южный, ЮЗ - юго-западный, З - западный, СЗ - северо-западный.
Видимость - горизонтальная дальность видимости в метрах или километрах. При видимости от 1 до 10 км при отсутствии осадков обычно наблюдается дымка, при ухудшении видимости до 1 км и менее - туман. В сухую погоду видимость может ухудшаться дымом, пылью или мглою.
Явления - указаны атмосферные явления, наблюдавшиеся в срок или в последний час перед сроком; фигурными скобками обозначены явления, наблюдавшиеся между сроками (за 1-3 часа до срока); квадратными скобками обозначены град или гололедные отложения с указанием их диаметра в мм.
Облачность - указаны через наклонную черту общая и нижняя облачность в баллах и высота нижней границы облаков в метрах; квадратными скобками обозначены формы облаков: Ci - перистые, Cs - перисто-слоистые, Cc - перисто-кучевые, Ac - высококучевые, As - высокослоистые, Sc - слоисто-кучевые, Ns - слоисто-дождевые, Cu - кучевые, Cb - кучево-дождевые. Подробнее классификацию облаков см. в Атласе облаков (PDF).
T - Температура воздуха - температура, измеренная на высоте 2 м над землей.
Td - Температура точки росы - температура, при понижении до которой содержащийся в воздухе водяной пар достигнет насыщения.
f - Относительная влажность воздуха - влажноcть воздуха, измеренная на высоте 2 м над землей.
Te - Эффективная температура - температура, которую ощущает одетый по сезону человек в тени. Характеристика душности погоды. При расчете учитывается влияние влажности воздуха и скорости ветра на теплоощущения человека.
Tes - Эффективная температура на солнце - температура, которую ощущает человек, с поправкой на солнечный нагрев. Характеристика знойности погоды. Зависит от высоты солнца над горизонтом, облачности и скорости ветра. Ночью, в пасмурную погоду, а также при ветре 12 м/с и более поправка равна нулю.
P - Атмосферное давление - приведенное к уровню моря атмосферное давление.
Po - Атмосферное давление - измеренное на уровне метеостанции атмосферное давление.
Tmin - Минимальная температура - минимум температуры воздуха на высоте 2 м над землей.
Tmax - Максимальная температура - максимум температуры воздуха на высоте 2 м над землей.
R - Количество осадков - Количество выпавших осадков за период времени, мм. При наведении курсора мыши на число - период времени, за который выпало указанное количество осадков.
R24 - Количество осадков - Количество выпавших осадков за 24 часа, мм.
S - Снежный покров - Высота снежного покрова, см. При наведении курсора мыши на число - состояние снежного покрова и степень покрытия местности в баллах.